Date String (YYYY-MM-DD hh:mm:ss) UTC,Instrument flags,absolute air pressure of the measurement (hPa),sample flow rate (lpm),inlet stack bypass flow (lpm),air temperature of the measurement (°C),ambient temperature measured by the external sensor (°C),aerosol sample conditioner tube jacket temperature (°C),OPC LED temperature (°C),internal box temperature (°C),relative humidity of the measurement (%),span deviation,mass concentration of particles derived from Lorenz-Mie calculation of OPC scattering (μg/m³),mass concentration of particles derived from Lorenz-Mie calculation of OPC scattering (μg/m³),mass concentration of particles derived from Lorenz-Mie calculation of OPC scattering (μg/m³)
DateTimeUTC,F1_M11,P_M11,Q1_M11,Q2_M11,T1_M11,T2_M11,T3_M11,T4_M11,T5_M11,U1_M11,ZSPAN_M11,X0_M11,X2_M11,X1_M11
2024-05-22 08:00:00,SystemResetWarning,0829.0,5.00,000.00,025.4,024.6,000.0,033.7,027.1,010.9,0000.0,0003.38,0001.87,0001.61
2024-05-22 08:01:00,SystemResetWarning,0829.0,5.00,000.00,025.4,024.6,000.0,033.7,027.1,010.9,0000.0,0003.85,0001.88,0001.62
2024-05-22 08:02:00,SystemResetWarning,0829.1,5.00,000.00,025.4,024.6,000.0,033.7,027.1,011.0,0000.0,0003.85,0001.89,0001.63
2024-05-22 08:03:00,SystemResetWarning,0829.1,4.99,000.00,025.4,024.6,000.0,033.6,027.1,011.0,0000.0,0003.94,0001.92,0001.65
2024-05-22 08:04:00,SystemResetWarning,0829.0,4.99,000.00,025.3,024.6,000.0,033.6,027.1,011.2,0000.0,0004.04,0001.97,0001.65
2024-05-22 08:05:00,SystemResetWarning,0829.0,5.00,000.00,025.3,024.6,000.0,033.6,027.1,011.0,0000.0,0004.52,0001.94,0001.64
2024-05-22 08:06:00,SystemResetWarning,0829.0,5.02,000.00,025.3,024.6,000.0,033.6,027.1,010.7,0000.0,0004.63,0001.95,0001.65
2024-05-22 08:07:00,SystemResetWarning,0829.0,5.01,000.00,025.3,024.6,000.0,033.6,027.1,010.7,0000.0,0004.56,0001.93,0001.64
2024-05-22 08:08:00,SystemResetWarning,0829.0,5.00,000.00,025.3,024.6,000.0,033.6,027.1,010.7,0000.0,0004.55,0001.93,0001.63
2024-05-22 08:09:00,SystemResetWarning,0829.0,4.99,000.00,025.3,024.6,000.0,033.6,027.1,010.5,0000.0,0004.56,0001.94,0001.63
2024-05-22 08:10:00,SystemResetWarning,0829.0,4.99,000.00,025.3,024.5,000.0,033.6,027.1,010.4,0000.0,0004.59,0001.95,0001.64
2024-05-22 08:11:00,SystemResetWarning,0829.1,5.00,000.00,025.3,024.5,000.0,033.6,027.1,010.6,0000.0,0004.14,0001.97,0001.64
2024-05-22 08:12:00,SystemResetWarning,0829.1,5.00,000.00,025.3,024.5,000.0,033.6,027.1,010.8,0000.0,0003.35,0001.97,0001.63
2024-05-22 08:13:00,SystemResetWarning,0829.1,5.01,000.00,025.3,024.5,000.0,033.6,027.1,010.8,0000.0,0003.53,0001.99,0001.63
2024-05-22 08:14:00,SystemResetWarning,0829.1,5.01,000.00,025.3,024.5,000.0,033.6,027.1,010.8,0000.0,0003.68,0001.96,0001.62
2024-05-22 08:15:00,SystemResetWarning,0829.1,5.00,000.00,025.3,024.5,000.0,033.6,027.0,010.8,0000.0,0003.76,0001.92,0001.62
2024-05-22 08:16:00,SystemResetWarning,0829.0,4.99,000.00,025.3,024.5,000.0,033.6,027.0,010.6,0000.0,0003.38,0001.90,0001.62
2024-05-22 08:17:00,SystemResetWarning,0829.0,4.99,000.00,025.3,024.5,000.0,033.6,027.0,010.7,0000.0,0003.14,0001.91,0001.62
2024-05-22 08:18:00,SystemResetWarning,0829.0,5.00,000.00,025.3,024.5,000.0,033.6,027.0,010.8,0000.0,0003.12,0001.90,0001.62
2024-05-22 08:19:00,SystemResetWarning,0829.0,5.01,000.00,025.3,024.5,000.0,033.6,027.0,010.8,0000.0,0003.10,0001.90,0001.63
2024-05-22 08:20:00,SystemResetWarning,0829.1,5.00,000.00,025.3,024.5,000.0,033.6,027.0,010.8,0000.0,0003.15,0001.92,0001.64
2024-05-22 08:21:00,SystemResetWarning,0829.1,5.00,000.00,025.3,024.5,000.0,033.5,027.0,010.6,0000.0,0003.21,0001.95,0001.64
2024-05-22 08:22:00,SystemResetWarning,0829.0,5.00,000.00,025.3,024.5,000.0,033.5,027.0,010.5,0000.0,0003.10,0001.94,0001.64
2024-05-22 08:23:00,SystemResetWarning,0829.0,5.00,000.00,025.3,024.5,000.0,033.5,027.0,010.4,0000.0,0003.11,0001.95,0001.66
2024-05-22 08:24:00,SystemResetWarning,0829.0,5.00,000.00,025.3,024.5,000.0,033.5,027.0,010.4,0000.0,0003.13,0001.99,0001.68
2024-05-22 08:25:00,SystemResetWarning,0829.1,5.00,000.00,025.3,024.5,000.0,033.5,027.0,010.5,0000.0,0002.78,0001.98,0001.69
2024-05-22 08:26:00,SystemResetWarning,0829.0,5.00,000.00,025.3,024.5,000.0,033.5,027.0,010.6,0000.0,0002.57,0001.97,0001.69
2024-05-22 08:27:00,SystemResetWarning,0829.1,5.00,000.00,025.2,024.5,000.0,033.5,027.0,010.7,0000.0,0002.48,0001.95,0001.69
2024-05-22 08:28:00,SystemResetWarning,0829.0,5.00,000.00,025.2,024.5,000.0,033.5,027.0,010.9,0000.0,0002.59,0001.97,0001.68
2024-05-22 08:29:00,SystemResetWarning,0829.0,5.00,000.00,025.2,024.5,000.0,033.5,027.0,010.8,0000.0,0002.67,0001.97,0001.68
2024-05-22 08:30:00,SystemResetWarning,0829.0,5.00,000.00,025.2,024.4,000.0,033.5,027.0,010.9,0000.0,0002.68,0001.98,0001.67
2024-05-22 08:31:00,SystemResetWarning,0829.0,5.00,000.00,025.2,024.4,000.0,033.5,026.9,011.0,0000.0,0002.67,0001.97,0001.67
2024-05-22 08:32:00,SystemResetWarning,0829.0,5.00,000.00,025.2,024.4,000.0,033.5,026.9,011.1,0000.0,0002.57,0001.94,0001.66
2024-05-22 08:33:00,SystemResetWarning,0829.0,5.00,000.00,025.2,024.4,000.0,033.5,026.9,011.1,0000.0,0002.62,0001.94,0001.66
2024-05-22 08:34:00,SystemResetWarning,0829.0,5.00,000.00,025.2,024.4,000.0,033.5,026.9,011.0,0000.0,0003.65,0001.95,0001.65
2024-05-22 08:35:00,SystemResetWarning,0829.0,5.00,000.00,025.2,024.4,000.0,033.5,026.9,011.0,0000.0,0004.14,0001.89,0001.63
2024-05-22 08:36:00,SystemResetWarning,0829.0,5.00,000.00,025.2,024.4,000.0,033.5,026.9,011.1,0000.0,0004.10,0001.86,0001.62
2024-05-22 08:37:00,SystemResetWarning,0829.0,5.00,000.00,025.2,024.4,000.0,033.5,026.9,011.3,0000.0,0004.11,0001.86,0001.62
2024-05-22 08:38:00,SystemResetWarning,0829.0,5.00,000.00,025.2,024.4,000.0,033.5,026.9,011.5,0000.0,0004.15,0001.88,0001.63
2024-05-22 08:39:00,SystemResetWarning,0829.0,4.99,000.00,025.2,024.4,000.0,033.5,026.9,011.5,0000.0,0004.07,0001.87,0001.63
2024-05-22 08:40:00,SystemResetWarning,0829.0,5.00,000.00,025.1,024.3,000.0,033.4,026.9,011.5,0000.0,0003.92,0001.84,0001.63
2024-05-22 08:41:00,SystemResetWarning,0829.0,5.00,000.00,025.1,024.3,000.0,033.4,026.9,011.4,0000.0,0005.24,0001.84,0001.63
2024-05-22 08:42:00,SystemResetWarning,0829.0,4.99,000.00,025.1,024.3,000.0,033.4,026.9,011.4,0000.0,0005.38,0001.88,0001.65
2024-05-22 08:43:00,SystemResetWarning,0828.9,5.00,000.00,025.1,024.3,000.0,033.4,026.9,011.5,0000.0,0006.76,0001.89,0001.64
2024-05-22 08:44:00,SystemResetWarning,0828.9,5.01,000.00,025.1,024.3,000.0,033.4,026.8,011.5,0000.0,0007.23,0001.89,0001.63
2024-05-22 08:45:00,SystemResetWarning,0828.9,5.00,000.00,025.1,024.3,000.0,033.4,026.8,011.6,0000.0,0006.79,0001.89,0001.63
2024-05-22 08:46:00,SystemResetWarning,0828.9,4.99,000.00,025.1,024.2,000.0,033.4,026.8,011.5,0000.0,0006.87,0001.88,0001.64
2024-05-22 08:47:00,SystemResetWarning,0829.0,4.98,000.00,025.1,024.2,000.0,033.4,026.8,011.1,0000.0,0007.37,0001.90,0001.65
2024-05-22 08:48:00,SystemResetWarning,0828.9,5.00,000.00,025.0,024.2,000.0,033.4,026.7,011.2,0000.0,0007.45,0001.95,0001.65
2024-05-22 08:49:00,SystemResetWarning,0828.9,5.01,000.00,025.0,024.2,000.0,033.4,026.7,011.2,0000.0,0007.50,0001.96,0001.65
2024-05-22 08:50:00,SystemResetWarning,0829.0,5.01,000.00,025.0,024.2,000.0,033.4,026.7,011.3,0000.0,0007.51,0001.96,0001.64
2024-05-22 08:51:00,SystemResetWarning,0828.9,4.99,000.00,025.0,024.2,000.0,033.3,026.7,011.3,0000.0,0007.60,0001.94,0001.63
2024-05-22 08:52:00,SystemResetWarning,0829.0,4.99,000.00,025.0,024.1,000.0,033.3,026.7,011.2,0000.0,0007.48,0001.94,0001.64
2024-05-22 08:53:00,SystemResetWarning,0829.1,5.00,000.00,025.0,024.1,000.0,033.3,026.7,011.1,0000.0,0007.36,0001.93,0001.64
2024-05-22 08:54:00,SystemResetWarning,0829.2,5.00,000.00,024.9,024.1,000.0,033.3,026.7,011.3,0000.0,0006.32,0001.96,0001.64
2024-05-22 08:55:00,SystemResetWarning,0829.1,5.01,000.00,024.9,024.1,000.0,033.3,026.6,011.2,0000.0,0005.89,0001.98,0001.65
2024-05-22 08:56:00,SystemResetWarning,0829.2,5.00,000.00,024.9,024.1,000.0,033.3,026.6,011.3,0000.0,0005.96,0002.00,0001.65
2024-05-22 08:57:00,SystemResetWarning,0829.2,5.00,000.00,024.9,024.1,000.0,033.3,026.6,011.4,0000.0,0005.15,0002.03,0001.64
2024-05-22 08:58:00,SystemResetWarning,0829.2,5.00,000.00,024.9,024.1,000.0,033.2,026.6,011.8,0000.0,0004.33,0002.03,0001.63
2024-05-22 08:59:00,SystemResetWarning,0829.2,5.00,000.00,024.9,024.1,000.0,033.2,026.6,012.1,0000.0,0005.16,0002.01,0001.63
